MDT,Max TemperatureF,Mean TemperatureF,Min TemperatureF,Max Dew PointF,MeanDew PointF,Min DewpointF,Max Humidity, Mean Humidity, Min Humidity, Max Sea Level PressureIn, Mean Sea Level PressureIn, Min Sea Level PressureIn, Max VisibilityMiles, Mean VisibilityMiles, Min VisibilityMiles, Max Wind SpeedMPH, Mean Wind SpeedMPH, Max Gust SpeedMPH,PrecipitationIn, CloudCover, Events, WindDirDegrees
2013-7-1,86,66,47,43,34,14,77,36,7,30.39,30.33,30.26,10,10,10,21,4,28,0.00,1,,349
2013-7-2,85,66,48,43,29,2,72,32,5,30.37,30.30,30.21,10,10,10,21,3,30,0.00,0,,318
2013-7-3,83,64,46,44,37,31,69,42,15,30.26,30.22,30.14,10,10,10,17,3,34,0.00,1,,175
2013-7-4,83,64,46,48,42,29,89,49,14,30.23,30.15,30.07,10,10,10,10,2,18,0.00,1,,347
2013-7-5,82,68,55,57,48,41,80,52,23,30.12,30.07,30.01,10,10,1,17,3,41,0.00,3,,113
2013-7-6,81,68,54,52,45,35,91,49,19,30.20,30.14,30.06,10,10,7,13,5,21,0.00,3,,118
2013-7-7,84,67,50,50,42,29,91,48,13,30.26,30.21,30.15,10,10,10,7,2,,0.00,0,,60
2013-7-8,81,67,53,47,41,33,72,42,19,30.32,30.28,30.24,10,10,10,17,3,29,0.00,1,,145
2013-7-9,86,67,48,44,36,22,77,37,10,30.39,30.35,30.29,10,10,10,20,2,28,0.00,0,,125
2013-7-10,92,71,50,42,30,10,67,30,5,30.34,30.27,30.17,10,10,7,15,2,23,0.00,0,,259
2013-7-11,92,70,49,51,33,21,63,30,7,30.24,30.16,30.04,10,10,10,14,1,25,0.00,1,,242
2013-7-12,86,70,54,56,49,37,91,58,18,30.26,30.20,30.11,10,10,2,21,4,29,0.00,3,,247
2013-7-13,82,68,54,55,51,44,94,66,26,30.31,30.27,30.22,10,10,7,15,3,28,0.00,3,,83
2013-7-14,83,66,50,53,46,39,94,52,22,30.35,30.29,30.23,10,10,10,26,4,31,0.00,1,,86
2013-7-15,86,68,51,51,43,36,77,43,17,30.28,30.21,30.12,10,10,7,18,3,25,0.00,1,,65
2013-7-16,90,70,51,48,38,19,81,38,7,30.26,30.20,30.12,10,10,10,18,3,21,0.00,0,,89
2013-7-17,90,72,53,54,42,34,73,40,14,30.36,30.30,30.23,10,10,3,16,3,23,0.00,2,,213
2013-7-18,86,71,56,58,51,39,92,62,19,30.39,30.33,30.23,10,10,7,17,3,22,0.00,3,,272
2013-7-19,87,69,51,54,43,29,97,51,12,30.36,30.26,30.14,10,10,10,28,3,37,0.00,0,,14
2013-7-20,89,70,50,45,33,10,76,35,5,30.24,30.16,30.05,10,10,10,17,2,22,0.00,0,,249
2013-7-21,90,68,45,38,24,-1,59,27,4,30.18,30.12,30.06,10,10,10,15,2,22,0.00,0,,211
2013-7-22,90,67,44,34,16,-28,63,23,4,30.24,30.18,30.12,10,10,10,13,2,23,0.00,0,,224
2013-7-23,89,67,45,32,16,-20,53,21,4,30.29,30.23,30.18,10,10,10,14,1,18,0.00,0,,157
2013-7-24,88,66,45,44,31,19,58,31,8,30.30,30.25,30.21,10,10,10,13,2,22,0.00,2,,178
2013-7-25,79,66,54,54,47,35,95,56,22,30.40,30.30,30.24,10,10,5,22,3,30,0.00,3,,351
2013-7-26,85,67,49,46,36,18,82,42,9,30.42,30.35,30.28,10,10,10,18,2,23,0.00,0,,254
2013-7-27,85,66,46,50,38,26,72,45,12,30.30,30.22,30.11,10,10,10,17,2,26,0.00,4,,49
2013-7-28,73,64,54,54,50,46,96,69,38,30.15,30.12,30.06,10,9,2,10,2,,0.00,6,,91
2013-7-29,71,60,50,51,48,39,94,70,32,30.35,30.24,30.14,10,10,5,13,3,21,0.00,5,,61
2013-7-30,81,64,48,50,42,27,95,54,15,30.44,30.39,30.34,10,10,10,14,4,21,0.00,3,,239
2013-7-31,85,66,46,44,36,17,89,41,8,30.47,30.39,30.31,10,10,10,15,2,21,0.00,1,,137